Waycross, GA

9:47 PM EST on December 03, 2016 (GMT -0500)
Waycross-Ware County

Weather History for KAYS - October, 2011

Change the Weather History Date:

Monday, October 10, 2011

  Actual Average (KAMG) Record (KAMG)
Temperature  
Mean Temperature 74 °F 70 °F  
Max Temperature 80 °F 81 °F 93 °F (1982)
Min Temperature 69 °F 60 °F 36 °F (2000)
Degree Days  
Heating Degree Days 0 1  
Month to date heating degree days 5  
Since 1 July heating degree days 7  
Cooling Degree Days 10 6  
Month to date cooling degree days 72  
Year to date cooling degree days 2342  
Growing Degree Days 24 (Base 50)    
Moisture  
Dew Point 72 °F    
Average Humidity 94    
Maximum Humidity 100    
Minimum Humidity 84    
Precipitation  
Precipitation 0.00 in 0.11 in 4.23 in (1990)
Month to date precipitation 1.04  
Year to date precipitation 38.89  
Snow  
Snow 0.00 in 0.00 in 0.00 in ()
Month to date snowfall 0.0  
Since 1 July snowfall 0.0  
Since 1 September snowfall 0.0  
Snow Depth -    
Sea Level Pressure  
Sea Level Pressure 29.85 in    
Wind  
Wind Speed 11 mph (NE)    
Max Wind Speed 22 mph    
Max Gust Speed 28 mph    
Visibility 6 miles    
Events      
T = Trace of Precipitation, MM = Missing Value Source: NWS Daily Summary

Daily Weather History Graph

Daily Weather History Graph

Search for Another Location

Airport or City:

Trip Planner

Search our weather history database for the weather conditions in past years. The results will help you decide how hot, cold, wet, or windy it might be!

Date:

Astronomy

Oct. 10, 2011 Rise Set
Actual Time 7:28 AM EDT 7:03 PM EDT
Civil Twilight 7:04 AM EDT 7:28 PM EDT
Nautical Twilight 6:36 AM EDT 7:56 PM EDT
Astronomical Twilight 6:08 AM EDT 8:24 PM EDT
Moon 6:07 PM EDT (10/10) 6:11 AM EDT (10/10)
Length of Visible Light 12h 23m
Length of Day
11h 35m
Waxing Gibbous, 98% of the Moon is Illuminated
Oct 10
Waxing Gibbous
Oct 11
Full
Oct 19
Last Quarter
Oct 26
New
Nov 2
First Quarter

Hourly Weather History & Observations

Time (EDT) Temp. Heat Index Dew Point Humidity Pressure Visibility Wind Dir Wind Speed Gust Speed Precip Events Conditions
12:15 AM 71.6 °F - 69.8 °F 94% 29.98 in 10.0 mi NE 8.1 mph - N/A   Overcast
12:35 AM 71.6 °F - 69.8 °F 94% 29.98 in 7.0 mi NE 9.2 mph 18.4 mph N/A   Overcast
12:55 AM 71.6 °F - 69.8 °F 94% 29.97 in 10.0 mi NE 10.4 mph 16.1 mph N/A   Overcast
1:15 AM 71.6 °F - 69.8 °F 94% 29.97 in 10.0 mi NE 8.1 mph - N/A   Overcast
1:35 AM 71.6 °F - 69.8 °F 94% 29.95 in 10.0 mi NNE 11.5 mph - N/A   Overcast
1:55 AM 71.6 °F - 69.8 °F 94% 29.94 in 10.0 mi NNE 9.2 mph - N/A   Overcast
2:15 AM 71.6 °F - 69.8 °F 94% 29.92 in 10.0 mi NNE 11.5 mph 17.3 mph N/A   Overcast
2:35 AM 71.6 °F - 69.8 °F 94% 29.92 in 10.0 mi NE 6.9 mph 17.3 mph N/A   Overcast
2:55 AM 71.6 °F - 69.8 °F 94% 29.91 in 10.0 mi NE 10.4 mph 17.3 mph N/A   Overcast
3:15 AM 71.6 °F - 69.8 °F 94% 29.90 in 10.0 mi NE 12.7 mph 19.6 mph N/A   Overcast
3:35 AM 71.6 °F - 69.8 °F 94% 29.89 in 10.0 mi NE 10.4 mph 17.3 mph N/A   Overcast
3:55 AM 71.6 °F - 69.8 °F 94% 29.88 in 10.0 mi NNE 13.8 mph - N/A   Overcast
4:15 AM 71.6 °F - 69.8 °F 94% 29.88 in 10.0 mi NE 10.4 mph - N/A   Overcast
4:35 AM 71.6 °F - 69.8 °F 94% 29.87 in 5.0 mi NE 12.7 mph 20.7 mph N/A   Overcast
4:55 AM 71.6 °F - 69.8 °F 94% 29.87 in 7.0 mi NE 13.8 mph 21.9 mph N/A   Overcast
5:15 AM 71.6 °F - 69.8 °F 94% 29.86 in 1.5 mi NNE 12.7 mph 20.7 mph N/A   Overcast
5:35 AM 71.6 °F - 69.8 °F 94% 29.86 in 2.5 mi NE 10.4 mph 18.4 mph N/A   Overcast
5:55 AM 71.6 °F - 69.8 °F 94% 29.85 in 4.0 mi NE 12.7 mph 20.7 mph N/A   Overcast
6:15 AM 71.6 °F - 69.8 °F 94% 29.85 in 5.0 mi NE 13.8 mph 19.6 mph N/A   Overcast
6:35 AM 71.6 °F - 69.8 °F 94% 29.83 in 5.0 mi NE 16.1 mph 24.2 mph N/A   Overcast
6:55 AM 71.6 °F - 69.8 °F 94% 29.84 in 4.0 mi NE 16.1 mph 25.3 mph N/A   Overcast
7:15 AM 71.6 °F - 69.8 °F 94% 29.84 in 5.0 mi NE 15.0 mph 24.2 mph N/A   Overcast
7:35 AM 69.8 °F - 69.8 °F 100% 29.84 in 5.0 mi NE 17.3 mph 27.6 mph N/A   Overcast
7:55 AM 69.8 °F - 69.8 °F 100% 29.84 in 5.0 mi NE 16.1 mph 21.9 mph N/A   Overcast
8:15 AM 69.8 °F - 69.8 °F 100% 29.84 in 1.8 mi NE 8.1 mph 20.7 mph N/A   Overcast
8:35 AM 71.6 °F - 69.8 °F 94% 29.83 in 5.0 mi ENE 13.8 mph 24.2 mph N/A   Overcast
8:55 AM 71.6 °F - 69.8 °F 94% 29.83 in 3.0 mi NE 15.0 mph 23.0 mph N/A   Overcast
9:15 AM 71.6 °F - 69.8 °F 94% 29.83 in 2.5 mi ENE 13.8 mph 21.9 mph N/A   Overcast
9:35 AM 71.6 °F - 69.8 °F 94% 29.83 in 4.0 mi NE 16.1 mph 21.9 mph N/A   Overcast
9:55 AM 71.6 °F - 71.6 °F 100% 29.83 in 3.0 mi ENE 12.7 mph 25.3 mph N/A   Overcast
10:15 AM 71.6 °F - 71.6 °F 100% 29.83 in 7.0 mi NE 15.0 mph 24.2 mph N/A   Unknown
10:35 AM 71.6 °F - 71.6 °F 100% 29.84 in 7.0 mi ENE 11.5 mph 25.3 mph N/A   Unknown
10:55 AM 73.4 °F - 71.6 °F 94% 29.84 in 7.0 mi NE 10.4 mph 18.4 mph N/A   Unknown
11:15 AM 73.4 °F - 71.6 °F 94% 29.84 in 7.0 mi NE 10.4 mph 23.0 mph N/A   Unknown
11:35 AM 73.4 °F - 73.4 °F 100% 29.84 in 3.0 mi NE 8.1 mph - N/A   Unknown
11:55 AM 75.2 °F - 75.2 °F 100% 29.84 in 7.0 mi ENE 10.4 mph - N/A   Unknown
12:15 PM 77.0 °F - 75.2 °F 94% 29.84 in 5.0 mi ENE 12.7 mph - N/A   Unknown
12:35 PM 78.8 °F - 75.2 °F 89% 29.83 in 4.0 mi East 16.1 mph 21.9 mph N/A   Unknown
12:55 PM 78.8 °F - 77.0 °F 94% 29.83 in 7.0 mi East 16.1 mph 21.9 mph N/A   Unknown
1:15 PM 80.6 °F 87.1 °F 77.0 °F 89% 29.82 in 10.0 mi East 12.7 mph 21.9 mph N/A   Unknown
1:35 PM 80.6 °F 86.2 °F 75.2 °F 84% 29.82 in 10.0 mi East 13.8 mph 24.2 mph N/A   Unknown
1:55 PM - - - N/A% 29.81 in 10.0 mi East 21.9 mph 25.3 mph N/A   Unknown
2:15 PM 80.6 °F 86.2 °F 75.2 °F 84% 29.80 in 10.0 mi ENE 15.0 mph 23.0 mph N/A   Unknown
2:35 PM 77.0 °F - 75.2 °F 94% 29.79 in 0.8 mi ENE 12.7 mph 24.2 mph N/A   Unknown
2:55 PM 78.8 °F - 75.2 °F 89% 29.78 in 10.0 mi ENE 11.5 mph 19.6 mph N/A   Unknown
3:15 PM 77.0 °F - 75.2 °F 94% 29.79 in 1.0 mi ENE 13.8 mph 18.4 mph N/A   Unknown
3:35 PM 75.2 °F - 73.4 °F 94% 29.78 in 0.8 mi NNE 13.8 mph 18.4 mph N/A   Unknown
3:55 PM 75.2 °F - 73.4 °F 94% 29.78 in 1.0 mi Calm Calm - N/A   Unknown
4:15 PM 75.2 °F - 75.2 °F 100% 29.78 in 5.0 mi East 9.2 mph - N/A   Unknown
4:35 PM 75.2 °F - 75.2 °F 100% 29.78 in 10.0 mi East 16.1 mph 21.9 mph N/A   Unknown
4:55 PM 75.2 °F - 73.4 °F 94% 29.78 in 3.0 mi ENE 17.3 mph 23.0 mph N/A   Unknown
5:15 PM 75.2 °F - 73.4 °F 94% 29.77 in 10.0 mi East 13.8 mph 19.6 mph N/A   Unknown
5:35 PM 75.2 °F - 73.4 °F 94% 29.77 in 10.0 mi East 12.7 mph 19.6 mph N/A   Unknown
5:55 PM 75.2 °F - 73.4 °F 94% 29.77 in 7.0 mi ENE 10.4 mph 16.1 mph N/A   Unknown
6:15 PM 75.2 °F - 73.4 °F 94% 29.78 in 7.0 mi ENE 12.7 mph 18.4 mph N/A   Unknown
6:35 PM 75.2 °F - 73.4 °F 94% 29.78 in 7.0 mi ENE 15.0 mph 23.0 mph N/A   Unknown
6:55 PM 75.2 °F - 73.4 °F 94% 29.78 in 7.0 mi ENE 16.1 mph 25.3 mph N/A   Unknown
7:15 PM 75.2 °F - 73.4 °F 94% 29.79 in 7.0 mi ENE 13.8 mph 19.6 mph N/A   Unknown
7:35 PM 75.2 °F - 71.6 °F 89% 29.80 in 10.0 mi ENE 12.7 mph 23.0 mph N/A   Unknown
7:55 PM 75.2 °F - 71.6 °F 89% 29.81 in 10.0 mi ENE 11.5 mph 21.9 mph N/A   Unknown
8:15 PM 73.4 °F - 71.6 °F 94% 29.80 in 7.0 mi ENE 13.8 mph 20.7 mph N/A   Unknown
8:35 PM 73.4 °F - 71.6 °F 94% 29.82 in 10.0 mi ENE 8.1 mph 20.7 mph N/A   Unknown
8:55 PM 73.4 °F - 71.6 °F 94% 29.82 in 10.0 mi NE 9.2 mph 16.1 mph N/A   Unknown
9:15 PM 73.4 °F - 71.6 °F 94% 29.82 in 7.0 mi ENE 11.5 mph 16.1 mph N/A   Unknown
9:35 PM 73.4 °F - 71.6 °F 94% 29.83 in 7.0 mi ENE 12.7 mph 16.1 mph N/A   Unknown
9:55 PM 71.6 °F - 71.6 °F 100% 29.83 in 7.0 mi ENE 12.7 mph - N/A   Unknown
10:15 PM 71.6 °F - 71.6 °F 100% 29.84 in 4.0 mi NE 5.8 mph 10.4 mph N/A   Unknown
10:35 PM 71.6 °F - 71.6 °F 100% 29.83 in 4.0 mi NE 9.2 mph - N/A   Unknown
10:55 PM 71.6 °F - 69.8 °F 94% 29.83 in 10.0 mi NE 9.2 mph - N/A   Unknown
11:15 PM 71.6 °F - 69.8 °F 94% 29.83 in 10.0 mi NE 5.8 mph - N/A   Unknown
11:35 PM 71.6 °F - 69.8 °F 94% 29.83 in 10.0 mi NE 5.8 mph - N/A   Unknown
11:55 PM 71.6 °F - 69.8 °F 94% 29.83 in 10.0 mi Calm Calm - N/A   Unknown